User: anonymous   Login
Location: Vigo di Fassa
(46.4167°N, 11.6667°E)
Time: 00:32:18
(UTC+00:00)
Language:

Cosmos 2322 Rocket - Orbit

View from above orbital plane
View from above orbital plane
View from above satellite
View from above satellite

Ground track
Ground track

The orbit data is extracted from the following two-line orbital elements,

1 23705U 95058B   21138.56560024 -.00000297  00000-0 -12841-3 0  9996
2 23705  71.0227 265.8353 0014911 275.2651  84.6770 14.15150007319384
Epoch (UTC): 18 May 2021 13:34:27
Eccentricity: 0.0014911
inclination: 71.0227°
perigee height: 831 km
apogee height: 852 km
right ascension of ascending node: 265.8353°
argument of perigee: 275.2651°
revolutions per day: 14.15150007
mean anomaly at epoch: 84.6770°
orbit number at epoch: 31938

The dashed part of the orbit path shows where the satellite is in the earth's shadow,  

DLR